SKW5706 KSFO-KMFR

Flight info

Callsign SKW5706
Flight time N/A
Altitude 32000
Route TRUKN2 GRTFL SAMIE
Aircraft E75L/M-SDE3GILORVW/S

Departure

Time N/A
Airport San Francisco International Airport (KSFO)

Arrival

Time 2026-04-24 19:21
Airport Rogue Valley International-Medford Airport (KMFR)
Time Latitude Longitude Altitude Speed Heading
2026-04-24 18:54 40.77225 -122.66611 31963 ft 451 kts 349°
2026-04-24 18:55 40.86552 -122.68353 31953 ft 451 kts 349°
2026-04-24 18:56 40.92773 -122.69512 31962 ft 451 kts 350°
2026-04-24 18:56 40.98952 -122.70661 31959 ft 451 kts 350°
2026-04-24 18:57 41.05174 -122.71826 31965 ft 452 kts 351°
2026-04-24 18:57 41.11401 -122.72993 31960 ft 451 kts 351°
2026-04-24 18:58 41.17614 -122.74160 31964 ft 451 kts 351°
2026-04-24 18:58 41.23772 -122.75319 31723 ft 443 kts 351°
2026-04-24 18:58 41.26764 -122.75877 31440 ft 425 kts 352°
2026-04-24 18:59 41.29658 -122.76416 30841 ft 417 kts 352°
2026-04-24 18:59 41.32504 -122.76944 30308 ft 409 kts 352°
2026-04-24 18:59 41.35299 -122.77466 29700 ft 402 kts 352°
2026-04-24 18:59 41.38030 -122.77977 29225 ft 392 kts 352°
2026-04-24 19:00 41.40719 -122.78478 28700 ft 390 kts 352°
2026-04-24 19:00 41.43425 -122.78985 28175 ft 396 kts 352°
2026-04-24 19:00 41.46175 -122.79500 27667 ft 401 kts 352°
2026-04-24 19:00 41.48938 -122.80017 27118 ft 400 kts 352°
2026-04-24 19:01 41.51646 -122.80523 26598 ft 397 kts 352°
2026-04-24 19:01 41.54375 -122.81034 26070 ft 394 kts 352°
2026-04-24 19:01 41.57086 -122.81542 25548 ft 391 kts 352°
2026-04-24 19:01 41.59770 -122.82045 25042 ft 388 kts 352°
2026-04-24 19:02 41.62435 -122.82544 24512 ft 385 kts 352°
2026-04-24 19:02 41.65069 -122.83060 24009 ft 381 kts 352°
2026-04-24 19:02 41.67686 -122.83545 23479 ft 378 kts 352°
2026-04-24 19:02 41.70281 -122.84024 23004 ft 374 kts 352°
2026-04-24 19:03 41.72817 -122.84497 22498 ft 373 kts 352°
2026-04-24 19:03 41.75372 -122.84976 22026 ft 370 kts 352°
2026-04-24 19:03 41.77910 -122.85454 21532 ft 367 kts 352°
2026-04-24 19:03 41.80433 -122.85931 21046 ft 364 kts 352°
2026-04-24 19:04 41.82930 -122.86402 20560 ft 361 kts 352°
2026-04-24 19:04 41.85404 -122.86868 20085 ft 357 kts 352°
2026-04-24 19:04 41.87854 -122.87330 19612 ft 354 kts 352°
2026-04-24 19:04 41.90284 -122.87790 19151 ft 352 kts 352°
2026-04-24 19:05 41.92673 -122.88242 18670 ft 350 kts 352°
2026-04-24 19:05 41.95074 -122.88696 18204 ft 348 kts 352°
2026-04-24 19:05 41.97464 -122.89148 17766 ft 344 kts 351°
2026-04-24 19:05 41.99830 -122.89602 17298 ft 343 kts 352°
2026-04-24 19:06 42.02185 -122.90027 16842 ft 340 kts 352°
2026-04-24 19:06 42.04524 -122.90462 16396 ft 339 kts 351°
2026-04-24 19:06 42.06857 -122.90916 15931 ft 338 kts 351°
2026-04-24 19:06 42.09170 -122.91363 15489 ft 335 kts 351°
2026-04-24 19:07 42.11443 -122.91746 15080 ft 332 kts 353°
2026-04-24 19:07 42.13735 -122.92077 14619 ft 329 kts 353°
2026-04-24 19:07 42.15988 -122.92413 14172 ft 322 kts 353°
2026-04-24 19:07 42.18193 -122.92745 13737 ft 316 kts 353°
2026-04-24 19:08 42.20350 -122.93071 13350 ft 308 kts 353°
2026-04-24 19:08 42.22458 -122.93387 12940 ft 302 kts 353°
2026-04-24 19:08 42.24525 -122.93707 12538 ft 296 kts 352°
2026-04-24 19:08 42.26558 -122.94021 12154 ft 291 kts 352°
2026-04-24 19:09 42.28562 -122.94327 11739 ft 288 kts 353°
2026-04-24 19:09 42.30501 -122.94621 11388 ft 281 kts 352°
2026-04-24 19:09 42.32405 -122.94911 11011 ft 268 kts 352°
2026-04-24 19:09 42.34213 -122.95188 10673 ft 255 kts 352°
2026-04-24 19:10 42.35937 -122.95452 10338 ft 245 kts 352°
2026-04-24 19:10 42.37599 -122.95707 10022 ft 236 kts 352°
2026-04-24 19:10 42.39201 -122.95955 9694 ft 228 kts 352°
2026-04-24 19:10 42.40751 -122.96193 9415 ft 220 kts 352°
2026-04-24 19:11 42.42247 -122.96424 9140 ft 213 kts 352°
2026-04-24 19:11 42.43701 -122.96647 8858 ft 208 kts 353°
2026-04-24 19:11 42.45101 -122.96864 8581 ft 203 kts 352°
2026-04-24 19:11 42.46489 -122.97081 8318 ft 199 kts 352°
2026-04-24 19:12 42.47861 -122.97296 8066 ft 198 kts 350°
2026-04-24 19:12 42.49224 -122.97549 7797 ft 198 kts 356°
2026-04-24 19:12 42.50599 -122.97426 7536 ft 198 kts
2026-04-24 19:12 42.51965 -122.97660 7290 ft 199 kts 349°
2026-04-24 19:13 42.52869 -122.97872 7107 ft 200 kts 351°
2026-04-24 19:13 42.54715 -122.98243 6732 ft 200 kts 352°
2026-04-24 19:13 42.56096 -122.98490 6469 ft 200 kts 352°
2026-04-24 19:13 42.57451 -122.98731 6199 ft 198 kts 353°
2026-04-24 19:14 42.58812 -122.98962 5936 ft 196 kts 354°
2026-04-24 19:14 42.60167 -122.99181 5654 ft 196 kts 354°
2026-04-24 19:14 42.61448 -122.98850 5439 ft 189 kts 42°
2026-04-24 19:14 42.61942 -122.97297 5453 ft 185 kts 95°
2026-04-24 19:15 42.61334 -122.95805 5566 ft 185 kts 145°
2026-04-24 19:15 42.60098 -122.95477 5649 ft 191 kts 192°
2026-04-24 19:15 42.58834 -122.96118 5503 ft 195 kts 200°
2026-04-24 19:15 42.57507 -122.96379 5302 ft 194 kts 180°
2026-04-24 19:16 42.54851 -122.96313 4711 ft 189 kts 178°
2026-04-24 19:16 42.53594 -122.96092 4543 ft 177 kts 161°
2026-04-24 19:16 42.52476 -122.95467 4231 ft 171 kts 154°
2026-04-24 19:17 42.51435 -122.94749 3964 ft 165 kts 152°
2026-04-24 19:17 42.50419 -122.94082 3731 ft 160 kts 157°
2026-04-24 19:17 42.49396 -122.93538 3538 ft 157 kts 159°
2026-04-24 19:17 42.48375 -122.93011 3342 ft 158 kts 159°
2026-04-24 19:18 42.47335 -122.92474 3130 ft 161 kts 159°
2026-04-24 19:18 42.46311 -122.91942 2872 ft 158 kts 159°
2026-04-24 19:18 42.45308 -122.91417 2635 ft 151 kts 160°
2026-04-24 19:18 42.44342 -122.90911 2420 ft 147 kts 160°
2026-04-24 19:19 42.43411 -122.90421 2262 ft 141 kts 159°
2026-04-24 19:19 42.42491 -122.89940 2117 ft 143 kts 159°
2026-04-24 19:19 42.41555 -122.89448 1925 ft 145 kts 159°
2026-04-24 19:19 42.40610 -122.88951 1747 ft 146 kts 159°
2026-04-24 19:20 42.39660 -122.88449 1571 ft 147 kts 159°
2026-04-24 19:20 42.38708 -122.87964 1381 ft 144 kts 159°
2026-04-24 19:20 42.37835 -122.87502 1315 ft 125 kts 160°
2026-04-24 19:20 42.37128 -122.87139 1327 ft 89 kts 159°
2026-04-24 19:21 42.36802 -122.86969 1329 ft 36 kts 159°
2026-04-24 19:21 42.36699 -122.86966 1330 ft 4 kts 271°
2026-04-24 19:21 42.36717 -122.87090 1323 ft 16 kts 320°
2026-04-24 19:21 42.36770 -122.87109 1323 ft 2 kts 337°
2026-04-24 19:22 42.36786 -122.87117 1323 ft 6 kts 337°
2026-04-24 19:22 42.36878 -122.87166 1323 ft 13 kts 339°
2026-04-24 19:22 42.36913 -122.87191 1323 ft 2 kts 326°
2026-04-24 19:22 42.36932 -122.87242 1323 ft 10 kts 281°
2026-04-24 19:23 42.36948 -122.87306 1323 ft 2 kts 272°
2026-04-24 19:23 42.36941 -122.87336 1323 ft 4 kts 246°
2026-04-24 19:23 42.36936 -122.87351 1323 ft 0 kts 247°